User: anonymous   Login
Location: Peebles
(55.6412°N, 3.1714°W)
Time: 22:03:09
(UTC+00:00)
Language:

NOAA 16 DEB - Orbit

View from above orbital plane
View from above orbital plane
View from above satellite
View from above satellite

Ground track
Ground track

The orbit data is extracted from the following two-line orbital elements,

1 42364U 00055RG  22336.45518209  .00003352  00000-0  16586-2 0  9990
2 42364  98.8252  56.2433 0062612 124.9376 235.7702 14.16956180344117
Epoch (UTC): 02 December 2022 10:55:27
Eccentricity: 0.0062612
inclination: 98.8252°
perigee height: 790 km
apogee height: 881 km
right ascension of ascending node: 56.2433°
argument of perigee: 124.9376°
revolutions per day: 14.16956180
mean anomaly at epoch: 235.7702°
orbit number at epoch: 34411

The dashed part of the orbit path shows where the satellite is in the earth's shadow,  

DLR